Theta_e
322 321 324 320 307 307 300 302 308 308 312 314 320 314 312 311 306 304 333 338 336 338 341 347 348 347 343 342 344 345 347 347 346 345 343 341 340 341 341 340 342 344 339 339 338 339 339 340 340
320 318 322 316 304 298 299 304 305 311 312 312 314 312 310 309 323 328 331 337 337 340 343 345 344 346 343 343 343 344 345 346 346 345 343 341 339 340 340 338 341 341 338 338 337 337 337 337 338
316 316 314 309 305 298 298 304 310 307 310 311 311 313 313 312 325 331 336 337 339 341 343 346 344 347 344 343 342 343 345 346 344 345 344 342 340 338 339 338 339 341 337 337 337 336 335 335 335
317 315 311 304 300 301 301 306 309 309 307 307 311 309 316 323 328 333 338 337 339 340 343 344 346 347 345 344 342 342 343 344 343 344 344 342 339 337 338 338 337 339 337 337 335 335 335 335 335
316 312 304 302 300 300 302 305 309 308 308 308 310 307 313 326 333 337 338 338 337 339 344 346 345 345 345 344 343 343 342 344 343 344 345 342 340 337 337 336 335 338 338 337 335 335 335 335 336
309 310 301 298 299 300 303 306 308 307 306 307 308 309 314 330 334 337 339 338 338 339 345 344 339 341 343 343 343 343 343 343 343 343 345 342 340 337 336 336 335 337 339 337 335 335 335 335 336
307 306 301 300 299 301 303 307 306 306 305 306 311 306 314 326 335 338 338 338 338 340 344 345 345 342 336 339 340 341 342 342 342 343 344 341 340 338 336 337 335 335 335 336 335 335 334 335 334
309 307 299 300 299 299 305 305 305 306 304 308 313 305 307 324 336 338 338 338 337 340 342 345 344 342 343 342 333 335 337 338 339 340 337 334 334 334 333 331 335 334 336 334 334 334 333 333 332
307 303 299 299 299 300 303 304 304 306 306 307 311 308 314 330 336 335 336 337 336 337 340 342 342 343 343 343 335 332 332 333 333 334 329 331 339 336 332 329 332 334 335 333 333 332 330 328 327
306 302 301 303 303 303 304 305 305 305 304 305 307 310 323 331 333 332 332 332 332 334 337 338 339 341 342 341 340 339 337 337 337 340 340 340 338 336 331 326 328 331 331 333 330 327 323 325 329
302 302 302 301 301 303 303 302 305 304 303 307 307 309 322 327 331 331 332 333 334 335 335 336 337 339 339 339 341 340 337 337 337 337 339 338 336 333 332 331 330 331 326 330 328 324 325 324 325
300 299 301 301 302 301 302 304 303 304 306 305 308 310 321 326 328 329 330 333 334 335 336 337 338 337 339 340 340 340 338 336 335 335 337 336 334 333 332 330 329 329 329 328 326 325 324 324 324
300 299 299 301 300 301 301 301 302 302 307 305 304 309 315 323 327 330 331 334 336 335 336 335 336 335 337 338 338 338 337 336 335 334 335 334 332 331 331 329 328 327 327 326 324 324 323 323 323
299 299 299 299 300 300 299 298 299 302 302 302 303 306 311 318 325 329 330 331 334 335 335 336 335 336 336 337 337 337 336 336 335 333 333 333 332 331 329 328 327 326 324 323 322 322 322 323 323
299 297 298 298 299 299 300 298 298 302 301 301 301 305 307 313 321 326 329 331 334 336 336 335 335 336 335 335 336 337 337 335 333 333 333 332 331 330 328 327 326 325 324 321 321 320 321 320 321
297 298 294 296 298 298 298 295 297 300 300 301 302 303 304 306 313 321 327 330 333 335 336 336 335 335 336 336 337 337 337 336 333 330 331 331 330 330 328 326 325 325 323 320 319 318 318 319 319
294 292 292 292 297 298 297 295 297 299 300 300 302 303 303 304 305 307 316 324 329 332 334 336 337 335 335 336 336 336 336 336 335 332 328 328 329 329 328 326 326 323 320 318 317 317 317 315 314
291 289 290 291 295 296 295 296 300 301 300 302 303 303 303 304 306 307 307 309 317 326 331 333 337 335 335 335 335 335 334 334 335 333 329 327 326 327 327 327 326 323 320 316 313 312 310 311 312
294 292 291 291 294 295 295 295 298 301 300 301 303 304 305 305 307 304 305 306 307 311 321 327 331 335 333 332 331 331 330 331 332 333 331 328 325 324 324 326 324 320 318 316 313 310 307 309 310
292 291 290 292 294 294 293 294 298 300 301 302 303 303 304 303 304 303 303 304 304 305 307 314 322 329 334 333 332 333 332 332 333 333 332 329 326 323 322 322 322 321 315 313 310 307 308 306 305
291 291 290 290 291 292 291 293 294 297 295 297 298 300 299 299 301 301 304 305 304 304 305 306 313 321 329 334 333 331 331 331 330 330 330 330 327 324 321 321 321 318 315 313 314 311 307 308 302
288 292 291 290 291 287 290 286 293 295 295 295 297 298 300 301 301 303 304 306 306 306 306 303 310 317 323 330 331 328 327 326 329 330 332 330 330 327 323 322 322 324 319 315 313 312 312 310 305
290 292 292 290 291 290 289 287 292 290 293 296 298 300 301 301 301 301 302 303 304 307 310 312 304 309 319 325 329 329 327 328 330 329 330 330 328 328 326 328 326 320 319 318 315 314 310 310 308
292 292 291 290 289 284 289 288 290 291 293 294 296 300 300 300 301 302 302 304 305 307 309 315 312 307 311 319 325 327 326 325 327 330 330 330 328 327 327 324 323 321 318 317 315 313 310 309 307
291 291 284 283 283 282 284 284 291 293 292 295 295 300 299 300 301 301 302 303 304 305 306 308 315 315 317 317 321 324 325 326 326 328 329 329 324 321 325 324 322 321 320 318 315 312 311 308 307
290 291 285 280 279 283 283 283 290 293 296 296 297 299 299 300 300 300 301 302 303 304 305 306 308 312 316 317 318 320 321 323 322 322 322 320 320 319 317 316 317 318 318 317 315 314 311 310 308
289 287 290 282 276 283 286 289 293 293 293 296 297 298 298 298 299 299 300 302 303 303 303 305 306 306 309 313 313 312 314 315 315 314 315 315 316 314 316 319 317 316 315 315 315 314 311 309 308
291 292 286 286 281 280 283 284 288 290 292 296 296 297 297 297 298 298 298 299 300 301 303 304 304 304 305 306 307 308 308 310 311 313 312 312 312 311 311 311 312 312 313 313 312 310 310 309 308
287 287 287 288 287 284 281 286 293 294 295 296 297 298 297 298 298 298 298 298 299 300 300 301 301 302 303 304 305 305 304 305 305 305 305 305 306 305 306 306 306 307 308 308 309 308 308 307 307
289 289 289 285 282 283 283 286 292 292 297 299 297 296 297 298 298 298 297 297 297 297 297 297 298 299 299 300 299 299 299 300 300 299 300 301 301 302 302 302 302 303 304 305 305 304 304 303 302
Wind_Speed
3 4 2 1 4 3 4 5 1 6 7 2 6 3 2 5 3 5 6 8 13 16 13 12 11 10 11 9 9 8 9 12 14 15 15 15 14 14 16 15 12 14 16 16 16 16 15 15 14
2 1 1 1 4 5 6 5 7 7 5 6 5 3 3 3 3 7 13 8 16 15 13 13 12 11 11 10 9 7 8 10 12 14 14 14 14 14 15 14 13 15 17 16 16 16 16 15 15
2 3 3 2 2 4 3 8 9 5 8 4 5 1 1 3 3 11 6 15 17 15 13 12 13 12 11 11 9 8 8 10 10 13 14 13 14 13 14 14 12 13 15 15 15 15 15 15 14
1 3 3 6 5 1 1 10 8 10 3 2 1 4 3 3 3 3 14 18 17 14 13 13 13 13 12 11 10 9 8 9 10 9 14 14 13 13 12 13 12 11 14 15 14 14 14 13 13
1 1 4 4 3 1 1 5 10 12 6 5 4 4 3 3 2 8 14 16 17 15 13 15 12 12 12 11 10 9 8 9 9 8 13 14 13 12 11 12 11 11 13 15 13 13 13 12 12
3 2 6 7 5 3 3 6 8 7 4 4 5 6 4 5 8 11 13 15 15 15 13 13 11 10 11 11 9 9 8 8 9 8 12 14 13 12 11 11 10 10 14 14 12 12 12 11 12
3 5 5 5 7 6 6 9 7 7 5 5 1 5 4 7 8 12 13 13 13 14 13 13 13 11 9 9 9 8 8 8 8 6 12 13 11 11 10 8 10 9 11 13 12 11 11 12 12
2 1 5 4 9 5 8 8 2 5 4 2 1 4 5 11 12 13 12 12 12 12 12 12 12 11 11 10 8 8 8 8 8 6 10 10 10 10 9 7 9 9 12 12 11 11 11 12 12
1 4 5 8 7 7 8 7 3 1 2 3 4 2 4 13 14 13 12 11 11 11 12 11 11 11 11 10 9 8 7 7 8 8 9 10 7 8 9 8 9 8 9 11 11 11 11 12 11
5 4 8 5 5 6 10 6 8 6 5 5 4 3 5 12 14 14 15 14 15 14 13 12 11 10 10 8 10 9 9 8 7 8 9 5 6 5 5 7 8 7 8 10 10 8 7 3 4
3 6 6 5 3 4 10 5 4 6 6 8 10 11 10 11 13 13 14 16 16 15 12 13 12 11 11 9 7 5 5 5 5 8 7 6 5 5 5 5 5 6 6 6 6 5 3 4 3
5 2 3 6 5 5 8 7 5 7 2 3 4 5 13 14 15 16 15 15 16 16 16 14 14 11 11 7 7 7 6 6 6 7 8 6 5 6 5 4 5 5 4 5 4 3 3 3 3
2 6 4 6 7 6 5 3 1 9 8 3 3 5 11 13 15 13 12 12 14 15 15 15 14 13 11 11 7 7 8 7 7 7 9 7 6 6 5 5 5 5 4 4 4 3 3 3 4
3 6 8 4 5 4 3 3 2 2 1 6 7 7 9 12 13 12 13 14 15 14 15 15 15 14 12 11 11 8 7 8 7 7 8 9 7 6 6 6 5 5 5 4 4 4 4 4 4
7 5 5 3 2 3 1 5 8 3 2 3 7 9 8 9 11 16 15 15 15 14 13 15 15 13 13 14 12 9 9 7 7 8 9 10 9 8 8 6 6 6 5 6 5 5 4 4 4
4 2 6 4 4 2 4 11 1 1 7 12 8 7 9 9 12 13 13 14 14 14 16 15 13 15 14 12 10 8 9 9 8 7 7 11 10 10 9 7 7 6 6 6 6 6 5 5 5
1 6 6 3 0 2 6 5 2 1 2 6 7 8 7 8 10 12 13 14 15 15 16 17 16 18 16 13 9 10 11 8 8 8 8 10 12 11 9 8 7 8 6 7 6 7 7 6 6
10 5 3 4 4 2 4 12 9 8 7 8 8 7 9 9 10 7 10 12 14 15 16 17 15 17 16 10 9 7 7 8 7 7 7 11 8 11 11 8 9 9 8 7 5 8 6 4 6
8 5 6 3 1 4 8 12 14 12 8 12 12 12 12 11 5 5 8 9 10 13 16 18 17 18 12 9 9 7 9 8 7 8 11 11 10 11 10 9 8 7 7 8 8 7 7 7 5
8 6 4 3 2 3 2 13 12 13 12 11 12 12 12 9 9 4 3 4 8 11 12 14 17 17 15 10 9 8 8 7 8 9 9 11 11 11 10 9 9 11 6 7 9 8 5 4 6
3 5 4 1 2 2 6 10 6 4 6 7 8 9 7 8 8 5 1 2 4 5 7 10 14 16 16 16 10 6 2 3 6 8 8 10 11 11 12 12 10 11 9 9 12 11 12 8 5
5 6 6 7 4 3 3 6 5 3 9 5 4 4 1 3 2 3 4 5 5 4 3 6 10 13 13 15 12 15 12 11 10 8 7 7 11 13 11 12 12 13 9 10 9 9 11 9 8
3 6 7 3 3 2 3 6 3 2 9 5 7 3 2 2 2 4 5 4 5 5 4 1 5 9 11 13 14 11 14 10 9 7 9 9 9 11 11 13 13 10 9 12 11 10 11 10 9
13 9 6 4 1 6 5 7 7 6 3 3 4 3 2 3 4 4 4 4 6 6 6 5 4 4 8 11 14 14 13 11 9 10 8 7 5 7 9 9 10 10 10 11 10 10 10 10 9
3 10 4 4 6 5 2 5 10 4 4 3 2 2 3 4 4 4 5 6 7 7 7 6 6 6 4 7 9 11 12 12 12 11 8 7 4 3 7 7 7 6 8 8 8 8 10 10 10
7 6 6 7 6 2 2 9 5 2 2 3 2 3 4 4 4 5 5 6 7 7 7 7 7 8 6 6 4 3 2 1 1 1 2 0 1 2 2 4 4 4 5 6 7 7 7 8 9
8 8 3 8 2 2 6 5 11 7 7 4 6 6 4 4 5 4 5 6 6 7 8 7 8 8 8 7 6 6 5 4 3 3 2 1 1 1 3 3 3 4 4 4 5 6 7 8 9
4 12 4 2 5 6 5 6 8 6 11 10 10 9 6 4 5 5 6 7 6 7 7 9 9 9 8 8 8 8 8 7 6 5 5 4 3 3 3 4 5 5 6 6 5 4 4 6 6
6 7 1 3 3 4 3 5 5 9 11 14 11 9 8 7 6 6 7 7 8 8 9 9 8 8 8 8 8 9 8 8 7 7 6 5 4 4 4 3 3 5 5 6 7 9 8 8 8
2 8 10 6 7 4 1 7 1 2 9 12 12 9 7 7 7 7 7 7 8 8 9 8 8 8 8 8 9 9 8 8 8 8 7 6 5 4 5 5 5 5 6 7 8 9 9 8 9
Wind_Direction
288 348 287 241 238 261 141 148 21 153 165 112 129 192 284 347 342 59 140 130 142 150 149 158 139 134 127 125 120 108 101 100 111 107 101 99 97 94 92 84 86 93 87 83 80 79 82 77 74
348 291 222 119 249 219 152 147 186 148 102 131 141 157 204 73 48 108 142 153 154 150 153 153 139 135 135 132 129 128 123 116 117 117 108 102 100 101 93 89 79 93 90 84 82 81 80 80 78
90 333 223 235 238 221 172 178 160 129 125 169 140 316 16 87 91 147 120 150 151 151 154 141 137 139 142 141 138 128 123 120 119 128 119 107 103 101 102 96 87 90 91 87 84 84 83 82 79
192 159 126 239 211 151 331 161 151 146 159 220 155 155 140 22 141 146 148 154 153 154 155 136 138 142 146 142 141 136 135 130 127 132 124 112 108 108 105 95 88 102 92 89 86 86 85 83 84
51 190 186 215 194 151 194 146 165 163 151 168 194 132 129 124 119 144 152 160 156 157 156 155 141 144 147 146 146 141 141 134 126 119 129 119 113 108 108 102 97 90 100 96 94 91 92 86 85
159 253 193 205 169 156 153 160 162 175 153 145 196 155 117 115 156 153 160 163 162 157 158 153 145 145 149 149 148 143 139 132 130 129 133 126 120 114 114 112 104 99 101 97 96 93 93 91 88
245 211 172 168 159 159 147 156 182 170 165 193 357 176 107 169 152 157 161 161 165 158 162 163 164 156 149 150 147 144 138 132 131 133 140 128 125 118 115 109 111 109 113 100 99 98 99 92 86
213 160 144 181 182 133 139 159 147 191 174 95 233 192 161 165 151 152 155 165 167 168 170 171 171 171 166 161 151 147 144 138 131 117 116 116 113 115 118 121 113 113 110 112 109 103 103 94 89
181 191 176 174 184 135 150 170 128 71 169 183 184 310 52 140 151 155 156 168 171 178 181 176 181 179 176 168 157 149 142 132 122 123 119 149 143 141 154 86 119 116 118 123 115 107 102 99 84
222 189 184 174 170 159 159 184 150 193 177 196 192 151 131 155 169 169 175 174 180 184 189 187 188 184 182 175 166 172 161 169 166 163 166 156 153 144 129 121 115 112 115 113 114 110 115 177 132
191 189 153 164 160 164 150 171 154 185 203 217 214 181 164 172 187 190 193 187 187 183 188 194 192 190 192 184 181 178 176 172 171 171 169 165 158 157 162 143 153 150 170 148 151 156 141 123 140
160 74 153 143 144 139 158 129 186 218 114 45 212 180 172 185 196 196 197 194 189 191 191 197 195 196 192 190 189 191 184 182 181 180 178 175 175 174 171 172 165 168 182 161 169 154 130 125 115
124 141 97 116 126 100 129 149 216 242 228 176 73 173 197 200 205 204 204 203 198 197 196 200 202 202 196 194 191 199 200 193 190 183 186 190 186 183 178 173 177 179 174 177 173 163 163 153 156
83 131 119 127 112 96 190 139 260 228 219 217 216 210 210 217 209 203 207 205 207 205 203 203 205 207 203 200 197 193 196 203 195 196 192 198 195 189 187 181 184 182 185 176 182 181 180 179 184
126 107 127 113 127 97 208 228 225 246 241 255 211 219 217 218 215 219 212 212 207 210 208 209 207 202 206 207 204 200 197 189 196 202 200 197 199 196 194 190 193 191 184 181 182 183 194 202 206
113 148 180 121 177 105 236 244 200 338 250 249 238 216 224 220 229 232 230 222 214 216 213 210 208 208 205 205 204 198 200 199 196 193 199 202 205 203 200 200 202 191 189 189 194 195 202 218 220
111 182 202 164 104 144 211 245 131 140 273 267 246 226 218 216 232 237 232 228 224 220 216 216 211 213 209 208 204 206 204 205 200 194 195 196 203 205 209 211 204 192 195 202 203 202 214 206 208
175 163 164 201 147 239 215 250 246 226 253 261 254 234 225 232 234 235 235 229 229 225 223 222 215 217 211 203 205 202 199 201 200 196 195 191 195 202 210 216 213 198 196 200 195 202 204 215 216
142 150 155 118 106 191 247 263 267 270 245 253 250 245 247 244 266 245 264 252 233 226 226 222 219 215 209 200 195 194 200 197 200 199 198 190 192 194 203 215 214 201 208 208 198 193 204 214 196
125 155 156 117 97 230 268 271 261 259 256 242 240 247 259 272 271 245 253 252 231 237 230 231 226 219 208 206 205 207 202 208 207 204 197 195 190 190 196 202 213 212 202 198 193 188 205 219 178
122 170 170 95 123 73 302 271 241 231 259 265 244 252 263 279 293 299 310 302 266 239 247 235 226 222 216 214 204 202 201 185 200 206 199 200 195 189 193 202 208 206 201 207 212 208 205 218 202
180 172 131 126 180 232 319 282 270 214 263 232 237 204 287 352 49 50 43 45 31 360 287 236 222 217 217 212 209 210 214 217 218 210 203 196 200 206 199 208 213 217 214 218 210 211 222 222 218
137 130 127 96 122 276 188 262 254 7 264 213 151 120 68 52 29 58 48 36 33 18 15 19 201 213 210 210 213 210 218 224 228 210 191 192 196 204 206 216 219 213 210 220 216 213 214 221 230
142 107 78 85 144 244 211 243 246 206 239 144 133 105 85 96 94 75 58 39 41 35 42 51 98 172 204 212 212 215 221 225 223 224 205 196 189 201 210 209 211 214 212 214 214 214 213 216 218
218 162 120 198 203 246 73 226 269 240 205 161 74 74 91 98 96 69 53 46 38 30 37 49 73 79 126 190 209 217 222 224 229 229 225 193 182 181 213 208 215 218 220 220 209 208 211 209 215
187 211 169 192 199 164 106 233 234 146 5 268 179 112 115 104 85 59 48 52 49 39 42 53 55 64 80 113 119 131 87 240 242 262 229 26 175 180 161 202 216 220 215 212 207 219 216 215 223
168 210 76 100 38 254 208 245 266 221 235 176 152 145 120 99 87 77 74 69 68 61 56 60 76 75 73 80 88 75 70 73 84 77 63 29 10 353 296 274 263 242 242 231 227 229 224 216 221
215 136 138 208 192 227 224 268 242 204 198 176 169 153 135 110 99 84 73 75 73 67 67 68 68 71 77 85 87 85 85 80 79 77 66 37 20 8 348 331 307 288 275 271 264 256 248 237 236
151 178 156 172 196 206 260 240 220 225 178 175 171 159 146 134 114 96 89 84 84 77 68 67 65 67 70 75 79 82 74 74 76 72 62 39 16 7 348 333 309 291 283 273 261 265 268 256 258
332 202 182 192 198 259 350 254 27 261 182 171 162 155 140 128 124 118 113 106 94 84 76 70 67 69 64 68 72 69 71 66 60 54 45 28 17 10 359 334 313 298 289 282 269 264 260 254 255